Regional Weather Roundup
Issued by NWS Burlington, VT

Home | Current Version | Previous Version | Text Only | Print | Product List | Glossary On
Versions: 1 2 3 4 5 6 7 8 9 10 11 12 13 14 15 16 17 18 19 20 21 22 23 24 25 26 27 28 29 30 31 32 33 34 35 36 37 38 39 40 41 42 43 44 45 46 47 48 49 50
000
ASUS41 KBTV 030630
RWRBTV
VERMONT REGIONAL WEATHER ROUNDUP
NATIONAL WEATHER SERVICE BURLINGTON VT
200 AM EDT TUE MAY 03 2016

NOTE: "FAIR" INDICATES FEW OR NO CLOUDS BELOW 12,000 FEET WITH NO
SIGNIFICANT WEATHER AND/OR OBSTRUCTIONS TO VISIBILITY.

* THESE REPORTS ARE NOT UNDER NWS QUALITY CONTROL AND/OR DO NOT
  REPORT WEATHER SUCH AS PRECIPITATION AND FOG.

VTZ001>019-030700-
_____VERMONT_____


CITY           SKY/WX    TMP DP  RH WIND       PRES   REMARKS
BURLINGTON     CLOUDY    45  42  89 N7        29.95S FOG
6HR MIN TEMP:  45; 6HR MAX TEMP:  46;

MONTPELIER     MOCLDY    41  39  93 NW7       29.95F
6HR MIN TEMP:  41; 6HR MAX TEMP:  44;

MORRISVILLE    CLOUDY    43  40  89 N5        29.94F
6HR MIN TEMP:  43; 6HR MAX TEMP:  45;

ST. JOHNSBURY*   N/A     45  41  86 MISG      29.90F
6HR MIN TEMP:  44; 6HR MAX TEMP:  46;

LYNDONVILLE*   CLOUDY    41  41  97 W5        29.91F
6HR MIN TEMP:  41; 6HR MAX TEMP:  43;

MIDDLEBURY*    CLOUDY    43  43 100 CALM      29.93F
6HR MIN TEMP:  43; 6HR MAX TEMP:  46;

RUTLAND*       CLOUDY    43  39  87 CALM      29.93F
6HR MIN TEMP:  43; 6HR MAX TEMP:  46;

SPRINGFIELD    CLOUDY    45  43  93 CALM      29.93F
6HR MIN TEMP:  45; 6HR MAX TEMP:  47;

HIGHGATE*      CLOUDY    43  41  93 CALM      29.95F
6HR MIN TEMP:  43; 6HR MAX TEMP:  45;

NEWPORT*       CLOUDY    41  40  95 NW3       29.93S
6HR MIN TEMP:  41; 6HR MAX TEMP:  43;

BENNINGTON     CLOUDY    47  46  97 NW5       29.90S FOG
6HR MIN TEMP:  47; 6HR MAX TEMP:  49; 6HR PCP:  0.04;

SUTTON*          N/A     41 N/A N/A MISG        N/A
GALLUP MILLS*    N/A     39 N/A N/A MISG        N/A
UNION VILLAGE*   N/A     43 N/A N/A MISG        N/A
MT. MANSFIELD*   N/A     32 N/A N/A NW20        N/A  WCI  20

_____LAKE CHAMPLAIN_____


CITY           SKY/WX    TMP DP  RH WIND       PRES   REMARKS
COLCHESTER RF*   N/A     43  43 100 N7          N/A
DIAMOND ISL*     N/A     45  43  93 N13         N/A

$$

NYZ007-026>031-035-052-083-087-030700-
_____NORTHERN NEW YORK_____


CITY           SKY/WX    TMP DP  RH WIND       PRES   REMARKS
SARANAC LAKE   CLOUDY    40  37  89 CALM      29.91F
6HR MIN TEMP:  40; 6HR MAX TEMP:  42;

MASSENA        FOG       36  35  96 CALM      29.97F VSB 1/4
6HR MIN TEMP:  36; 6HR MAX TEMP:  47;

OGDENSBURG*    FOG       37  37 100 CALM      29.96S VSB 1/4
STARK FALLS*     N/A     43 N/A N/A E1          N/A
WATERTOWN      FOG       36  36 100 CALM      29.97R VSB<1/4
6HR MIN TEMP:  35; 6HR MAX TEMP:  48;

FT DRUM        FOG       37  37 100 CALM      29.95S VSB 3/4
ALBANY         CLOUDY    48  46  93 N6        29.94F
6HR MIN TEMP:  48; 6HR MAX TEMP:  52; 6HR PCP:  0.02;

GLENS FALLS    CLOUDY    46  42  86 NE5       29.94F
6HR MIN TEMP:  46; 6HR MAX TEMP:  50; 6HR PCP:  0.03;


$$
NHZ002-005-011-030700-
_____NEW HAMPSHIRE_____


CITY           SKY/WX    TMP DP  RH WIND       PRES   REMARKS
LEBANON        CLOUDY    45  43  93 CALM      29.92R FOG
6HR MIN TEMP:  42; 6HR MAX TEMP:  47;

KEENE          CLOUDY    45  43  93 CALM      29.93F
6HR MIN TEMP:  45; 6HR MAX TEMP:  48;

MT WASHINGTON  FRZ DRZL  27  27 100 W26         N/A  VSB 0   WCI  11
6HR MIN TEMP:  26; 6HR MAX TEMP:  29; 6HR PCP:  0.02;

PLYMOUTH       CLOUDY    43  43  98 CALM      29.90F FOG
6HR MIN TEMP:  43; 6HR MAX TEMP:  46;

WHITEFIELD     CLOUDY    42  40  92 CALM      29.90F
6HR MIN TEMP:  42; 6HR MAX TEMP:  43;


$$

_____REGIONAL QUEBEC LOCATIONS_____


CITY           SKY/WX    TMP DP  RH WIND       PRES   REMARKS
MONTREAL       PTCLDY    39  37  93 N5        29.96F
QUEBEC CITY    LGT RAIN  41  37  87 NE7       29.96S
SHERBROOKE     LGT RAIN  39  39 100 VRB2      29.91S FOG

_____REGIONAL ONTARIO LOCATIONS_____


CITY           SKY/WX    TMP DP  RH WIND       PRES   REMARKS
OTTAWA         FOG       39  37  93 VRB2      29.94F VSB 0

______KEY______
VSB  - VISIBILITY IN MILES
WCI  - WIND CHILL INDEX
HX   - HEAT INDEX
$$
NNNN




USA.gov is the U.S. government's official web portal to all federal, state and local government web resources and services.